Regional Weather Roundup
Issued by NWS

Home | Current Version | Previous Version | Graphics & Text | Print | Product List | Glossary On
Versions: 1 2 3 4 5 6 7 8 9 10 11 12 13 14 15 16 17 18 19 20 21 22 23 24 25 26 27 28 29 30 31 32 33 34 35 36 37 38 39 40 41 42 43 44 45 46 47 48 49 50
000
ASUS43 KBIS 201710
RWRND

NORTH DAKOTA REGIONAL WEATHER ROUNDUP
NATIONAL WEATHER SERVICE BISMARCK ND
1100 AM CST MON NOV 20 2017

NOTE: "FAIR" INDICATES FEW OR NO CLOUDS BELOW 12,000 FEET WITH NO
SIGNIFICANT WEATHER AND/OR OBSTRUCTIONS TO VISIBILITY.


NDZ001>003-009>011-017-201800-
NORTHWEST NORTH DAKOTA

CITY           SKY/WX    TMP DP  RH WIND       PRES   REMARKS
WILLISTON      MOSUNNY   50  23  34 NW26G38   29.44R
MINOT          CLOUDY    47  22  37 SW17      29.34R
MINOT AFB      PTSUNNY   45  23  42 W17       29.32S
$$

NDZ018>021-031>035-040>046-201800-
SOUTHWEST NORTH DAKOTA

CITY           SKY/WX    TMP DP  RH WIND       PRES   REMARKS
BISMARCK       CLOUDY    52  24  33 W12       29.44R
DICKINSON      CLOUDY    47  18  31 W17       29.46R
GARRISON         N/A     41  28  60 W10       29.40R
HETTINGER ARPT CLOUDY    48  16  27 W15       29.52R
$$

NDZ004>008-012>016-024-026-027-054-201800-
NORTHEAST NORTH DAKOTA

CITY           SKY/WX    TMP DP  RH WIND       PRES   REMARKS
GRAND FORKS    CLOUDY    36  29  75 SW13      29.33S
GRND FRKS AFB  CLOUDY    37  27  68 SW12      29.32F
DEVILS LAKE    CLOUDY    35  27  72 W14       29.33F
$$

NDZ022-023-025-028>030-036>039-047>053-201800-
SOUTHEAST NORTH DAKOTA

CITY           SKY/WX    TMP DP  RH WIND       PRES   REMARKS
FARGO          CLOUDY    37  26  64 S14       29.37F
JAMESTOWN      CLOUDY    45  25  45 W15       29.37S
$$





USA.gov is the U.S. government's official web portal to all federal, state and local government web resources and services.